Hauptseite
METAR-TAF:

METAR-TAF

Flughäfen :

Fliegerhorst Neuburg

Neuburg, Deutschland

Breite: 48-43N, Länge: 011-13E, Höhe: 380 m

Beobachtung

Neuester Wetterbericht von vor 34 Minuten, um 08:20 UTC
Wind 5 kt aus Süd/Südwest
Temperatur 15°C
Luftfeuchtigkeit 94%
Luftdruck 1015 hPa
Sichtweite 10 km oder mehr
Leicht bewölkt in der Höhe von 300 ft
Aufgelockert bewölkt in der Höhe von 1400 ft
Durchbrochene Bewölkung in der Höhe von 2800 ft

METAR: ETSN 230820Z 20005KT 9999 FEW003 SCT014 BKN028 15/14 Q1015 BLU

Zeit: 10:54 (08:54 UTC)


TAF: fehlend

Wetterbeobachtungen und Prognosen von mehr als 4000 Flughäfen (METAR und TAF Bericht).

Die verfügbaren Stationen werden durch gelbe und rote Markierungen auf der Karte dargestellt.

Führen Sie die Maus auf sie, um den Namen der Station zu sehen.

Darauf klicken, um die Beobachtung von Wetterbeobachtungen und Prognosen zu sehen.

Um die Karte zu ändern : klicken Sie auf den grünen Tasten mit einem schwarzen Kreuz Zum Vergrößern, auf den grünen Button mit einem Gedankenstrich zu verkleinern, oder auf die grünen Pfeile für benachbarte Karten.


METAR-TAF: